Location: Fontevrault
(47.1823°N, 0.0493°E)
Time: 23:40:29
(UTC+00:00)

ISS - Visible Passes

Search period start: 30 September 2022 00:00
Search period end: 10 October 2022 00:00
Orbit: 413 x 417 km, 51.6° (Epoch: 30 September)

Date Brightness Start Highest point End Pass type
(mag) Time Alt. Az. Time Alt. Az. Time Alt. Az.
30 Sep -3.6 19:18:42 10° WNW 19:22:03 67° SSW 19:22:45 49° SSE visible
01 Oct -3.8 18:29:54 10° WNW 18:33:16 83° NNE 18:35:58 15° ESE visible
01 Oct -1.3 20:07:10 10° W 20:08:51 18° WSW 20:08:51 18° WSW visible
02 Oct -2.2 19:18:00 10° W 19:21:00 30° SW 19:22:08 24° S visible
03 Oct -2.9 18:29:00 10° WNW 18:32:14 47° SSW 18:35:29 10° SE visible
04 Oct -1.0 19:17:55 10° WSW 19:19:38 13° SW 19:21:20 10° SSW visible
05 Oct -1.4 18:28:19 10° W 18:30:56 21° SW 18:33:32 10° S visible
